Weather History for Pasco, WA

Change the Weather History Date:

Thursday, February 13, 2014

  Actual Average Record
Temperature  
Mean Temperature 49 °F 38 °F  
Max Temperature 60 °F 48 °F 60 °F (2011)
Min Temperature 38 °F 28 °F 12 °F (1995)
Degree Days  
Heating Degree Days 16 27  
Month to date heating degree days 480 357  
Since 1 July heating degree days 3890 3508  
Cooling Degree Days 0 0  
Month to date cooling degree days 0 0  
Year to date cooling degree days 0 0  
Moisture  
Dew Point 36 °F    
Average Humidity 58    
Maximum Humidity 82    
Minimum Humidity 33    
Precipitation  
Precipitation 0.00 in - 0.41 in (1990)
Month to date precipitation 0.25  
Year to date precipitation 0.61  
Snow  
Snow 0.00 in - - ()
Snow Depth 0.00 in    
Sea Level Pressure  
Sea Level Pressure 29.97 in    
Wind  
Wind Speed 12 mph (SW)    
Max Wind Speed 28 mph    
Max Gust Speed 35 mph    
Visibility 10 miles    
Events      
T = Trace of Precipitation, MM = Missing Value Source: NWS Daily Summary

Daily Weather History Graph

Daily Weather History Graph

Search for Another Location

Airport:

Trip Planner

Search our weather history database for the weather conditions in past years. The results will help you decide how hot, cold, wet, or windy it might be!

Date:

Astronomy

Feb. 13, 2014 Rise Set
Actual Time 7:02 AM PST 5:19 PM PST
Civil Twilight 6:31 AM PST 5:50 PM PST
Nautical Twilight 5:56 AM PST 6:25 PM PST
Astronomical Twilight 5:21 AM PST 7:00 PM PST
Moon 4:32 PM PST (2/13) 5:59 AM PST (2/13)
Length of Visible Light 11h 19m
Length of Day
10h 16m
Waxing Gibbous, 99% of the Moon is Illuminated
Feb 13
Waxing Gibbous
Feb 14
Full
Feb 22
Last Quarter
Mar 1
New
Mar 8
First Quarter

Hourly Weather History & Observations

Time (PST) Temp. Windchill Dew Point Humidity Pressure Visibility Wind Dir Wind Speed Gust Speed Precip Events Conditions
12:53 AM 46.9 °F - 41.0 °F 80% 29.78 in 10.0 mi South 5.8 mph - N/A   Overcast
1:53 AM 51.1 °F - 42.1 °F 71% 29.78 in 10.0 mi SSW 8.1 mph - N/A   Overcast
2:53 AM 52.0 °F - 42.1 °F 69% 29.79 in 10.0 mi WSW 15.0 mph 24.2 mph N/A   Overcast
3:53 AM 50.0 °F - 42.1 °F 74% 29.82 in 10.0 mi WSW 10.4 mph 18.4 mph N/A   Clear
4:53 AM 48.9 °F - 39.9 °F 71% 29.86 in 10.0 mi SW 15.0 mph 20.7 mph N/A   Clear
5:53 AM 48.0 °F - 39.0 °F 71% 29.90 in 10.0 mi WSW 18.4 mph - N/A   Clear
6:53 AM 46.9 °F - 37.9 °F 71% 29.92 in 10.0 mi WSW 17.3 mph 24.2 mph N/A   Clear
7:53 AM 46.9 °F - 37.0 °F 68% 29.96 in 10.0 mi SW 12.7 mph - N/A   Clear
8:53 AM 50.0 °F - 36.0 °F 59% 30.00 in 10.0 mi WSW 13.8 mph 20.7 mph N/A   Clear
9:53 AM 52.0 °F - 37.0 °F 57% 30.02 in 10.0 mi SW 17.3 mph - N/A   Clear
10:53 AM 55.9 °F - 33.1 °F 42% 30.04 in 10.0 mi WSW 25.3 mph 34.5 mph N/A   Clear
11:53 AM 57.9 °F - 33.1 °F 39% 30.05 in 10.0 mi WSW 15.0 mph 25.3 mph N/A   Clear
12:53 PM 57.9 °F - 36.0 °F 44% 30.04 in 10.0 mi WSW 21.9 mph 27.6 mph N/A   Clear
1:53 PM 59.0 °F - 35.1 °F 41% 30.05 in 10.0 mi WSW 16.1 mph 27.6 mph N/A   Clear
2:53 PM 57.0 °F - 28.9 °F 34% 30.06 in 10.0 mi West 20.7 mph - N/A   Clear
3:53 PM 55.9 °F - 30.0 °F 37% 30.07 in 10.0 mi West 12.7 mph - N/A   Clear
4:53 PM 52.0 °F - 35.1 °F 53% 30.07 in 10.0 mi WSW 17.3 mph - N/A   Clear
5:53 PM 50.0 °F - 34.0 °F 54% 30.06 in 10.0 mi SW 9.2 mph - N/A   Clear
6:53 PM 45.0 °F 43.5 °F 33.1 °F 63% 30.05 in 10.0 mi NE 3.5 mph - N/A   Clear
7:53 PM 45.0 °F 40.6 °F 33.1 °F 63% 30.05 in 10.0 mi SE 8.1 mph - N/A   Clear
8:53 PM 44.1 °F 41.5 °F 33.1 °F 65% 30.05 in 10.0 mi SE 4.6 mph - N/A   Clear
9:53 PM 42.1 °F 38.4 °F 35.1 °F 76% 30.01 in 10.0 mi SSE 5.8 mph - N/A   Clear
10:53 PM 41.0 °F - 34.0 °F 76% 29.99 in 10.0 mi Calm Calm - N/A   Clear
11:53 PM 37.9 °F - 34.0 °F 86% 29.95 in 10.0 mi Calm Calm - N/A   Clear